Voltar ao catálogo

USA 254

AtivoMilitarGEO
NORAD 40100·PAYLOAD·🇺🇸 United States

Lançado Jul 28, 2014 de Cape Canaveral Space Force Station

Loading…

TLE

AtualizadoSource: Space-Track

Época: Sep 14, 2026, 08:54 UTC

1 40100U 14043B   26257.37123734 -.00000297  00000-0  00000+0 0  9997
2 40100   4.9410  75.0067 0002067 228.9291 332.1208  0.99134203 28457

Acompanhe USA 254 em tempo real com AllMySat

Download on the App Store